Location: Darmstadt
(49.8706°N, 8.6494°E)
Time: 06:56:57
(UTC+01:00)

BREEZE-M R/B - Pass Details

Date: 31 October 2020
Orbit: 309 x 4521 km, 49.7° (Epoch: 03 December)

Event Time Altitude Azimuth Distance (km) Brightness Sun altitude
Rises 18:40:14 0° 280° (W) 2,453 7.7 -16.0°
Reaches altitude 10° 18:41:49 10° 278° (W) 1,775 6.7 -16.2°
Maximum altitude 18:45:37 74° 194° (SSW) 810 3.6 -16.8°
Enters shadow 18:50:10 22° 113° (ESE) 2,272 5.4 -17.6°
